Date String (YYYY-MM-DD hh:mm:ss) UTC,Instrument flags,Ambient pressure (hPa),Sample flow (lpm),Bypass flow (lpm),Sample temperature (°C),Ambient temperature (°C),ASC tube jacket temperature (°C),LED temperature (°C),Box temperature (°C),Sample RH (%),Span deviation,Mass concentration (μg/m³),Mass concentration (μg/m³),Mass concentration (μg/m³)
DateTimeUTC,F1_M11,P_M11,Q1_M11,Q2_M11,T1_M11,T2_M11,T3_M11,T4_M11,T5_M11,U1_M11,ZSPAN_M11,X0_M11,X2_M11,X1_M11
2023-02-05 22:00:00,,0818.9,5.02,0.00,25.8,24.7,00.0,34.6,27.7,11.8,0000.0,0014.37,0008.54,0007.76
2023-02-05 22:01:00,,0818.9,4.96,0.00,25.8,24.7,00.0,34.6,27.7,11.9,0000.0,0014.01,0008.56,0007.79
2023-02-05 22:02:00,,0818.9,5.03,0.00,25.8,24.7,00.0,34.6,27.7,12.0,0000.0,0014.41,0008.55,0007.80
2023-02-05 22:03:00,,0818.9,4.98,0.00,25.9,24.8,00.0,34.6,27.8,12.0,0000.0,0014.26,0008.53,0007.83
2023-02-05 22:04:00,,0818.8,5.00,0.00,25.9,24.8,00.0,34.6,27.8,11.9,0000.0,0014.31,0008.55,0007.85
2023-02-05 22:05:00,,0818.8,5.04,0.00,25.9,24.8,00.0,34.6,27.8,11.9,0000.0,0014.29,0008.56,0007.86
2023-02-05 22:06:00,,0818.8,4.96,0.00,25.9,24.8,00.0,34.6,27.8,11.8,0000.0,0014.11,0008.54,0007.90
2023-02-05 22:07:00,,0819.0,5.01,0.00,25.9,24.8,00.0,34.7,27.8,11.9,0000.0,0013.69,0008.48,0007.91
2023-02-05 22:08:00,,0819.0,5.03,0.00,25.9,24.7,00.0,34.7,27.8,11.9,0000.0,0013.44,0008.46,0007.89
2023-02-05 22:09:00,,0819.1,4.94,0.00,25.9,24.7,00.0,34.7,27.8,12.0,0000.0,0013.51,0008.46,0007.88
2023-02-05 22:10:00,,0819.1,5.04,0.00,25.9,24.7,00.0,34.7,27.8,12.1,0000.0,0013.66,0008.45,0007.86
2023-02-05 22:11:00,,0819.0,5.01,0.00,25.9,24.8,00.0,34.7,27.8,12.1,0000.0,0013.55,0008.41,0007.85
2023-02-05 22:12:00,,0818.9,4.96,0.00,25.9,24.7,00.0,34.7,27.8,12.1,0000.0,0013.54,0008.36,0007.83
2023-02-05 22:13:00,,0818.9,5.04,0.00,25.9,24.7,00.0,34.7,27.8,12.0,0000.0,0012.92,0008.32,0007.81
2023-02-05 22:14:00,,0818.9,4.99,0.00,25.9,24.7,00.0,34.7,27.8,12.1,0000.0,0013.00,0008.33,0007.79
2023-02-05 22:15:00,,0818.8,4.97,0.00,26.0,24.6,00.0,34.7,27.8,11.9,0000.0,0013.07,0008.35,0007.78
2023-02-05 22:16:00,,0818.8,5.03,0.00,25.9,24.6,00.0,34.7,27.8,11.8,0000.0,0012.89,0008.31,0007.76
2023-02-05 22:17:00,,0818.9,5.00,0.00,25.9,24.6,00.0,34.7,27.8,11.8,0000.0,0013.02,0008.28,0007.71
2023-02-05 22:18:00,,0818.9,4.97,0.00,25.9,24.6,00.0,34.7,27.8,12.0,0000.0,0013.39,0008.29,0007.68
2023-02-05 22:19:00,,0818.8,5.03,0.00,25.9,24.6,00.0,34.7,27.8,12.1,0000.0,0013.60,0008.32,0007.69
2023-02-05 22:20:00,,0818.8,4.99,0.00,25.9,24.7,00.0,34.7,27.8,12.2,0000.0,0013.44,0008.29,0007.68
2023-02-05 22:21:00,,0818.7,4.99,0.00,26.0,24.7,00.0,34.7,27.8,12.4,0000.0,0013.19,0008.26,0007.66
2023-02-05 22:22:00,,0818.5,5.04,0.00,26.0,24.8,00.0,34.7,27.9,12.5,0000.0,0013.19,0008.23,0007.65
2023-02-05 22:23:00,,0818.4,4.98,0.00,26.0,24.8,00.0,34.8,27.8,12.4,0000.0,0013.22,0008.25,0007.64
2023-02-05 22:24:00,,0818.4,4.99,0.00,26.0,24.8,00.0,34.8,27.8,12.4,0000.0,0013.25,0008.26,0007.63
2023-02-05 22:25:00,,0818.5,5.03,0.00,26.0,24.8,00.0,34.8,27.9,12.2,0000.0,0013.17,0008.24,0007.62
2023-02-05 22:26:00,,0818.5,4.96,0.00,26.0,24.9,00.0,34.8,27.9,12.3,0000.0,0013.06,0008.20,0007.61
2023-02-05 22:27:00,,0818.5,5.02,0.00,26.0,24.9,00.0,34.8,27.9,12.2,0000.0,0013.51,0008.23,0007.62
2023-02-05 22:28:00,,0818.5,5.04,0.00,26.0,24.9,00.0,34.8,27.9,12.2,0000.0,0013.79,0008.26,0007.63
2023-02-05 22:29:00,,0818.6,4.95,0.00,26.0,24.9,00.0,34.8,27.9,12.5,0000.0,0013.16,0008.22,0007.61
2023-02-05 22:30:00,,0818.6,5.04,0.00,26.0,24.9,00.0,34.8,27.9,12.4,0000.0,0012.89,0008.22,0007.61
2023-02-05 22:31:00,,0818.6,4.98,0.00,26.0,24.9,00.0,34.8,27.9,12.2,0000.0,0012.96,0008.24,0007.62
2023-02-05 22:32:00,,0818.6,5.00,0.00,26.0,24.9,00.0,34.8,27.9,12.1,0000.0,0012.94,0008.25,0007.62
2023-02-05 22:33:00,,0818.4,5.04,0.00,26.0,24.9,00.0,34.8,27.9,12.2,0000.0,0012.66,0008.29,0007.63
2023-02-05 22:34:00,,0818.4,4.95,0.00,26.0,24.8,00.0,34.8,27.9,12.0,0000.0,0012.72,0008.33,0007.66
2023-02-05 22:35:00,,0818.4,5.02,0.00,26.1,24.8,00.0,34.8,27.9,11.8,0000.0,0012.74,0008.34,0007.68
2023-02-05 22:36:00,,0818.4,5.03,0.00,26.1,24.8,00.0,34.9,27.9,11.8,0000.0,0012.73,0008.35,0007.70
2023-02-05 22:37:00,,0818.4,4.95,0.00,26.1,24.7,00.0,34.9,27.9,11.7,0000.0,0012.68,0008.38,0007.73
2023-02-05 22:38:00,,0818.5,5.04,0.00,26.1,24.6,00.0,34.9,27.9,12.0,0000.0,0012.53,0008.36,0007.72
2023-02-05 22:39:00,,0818.5,5.03,0.00,26.0,24.7,00.0,34.9,27.9,12.2,0000.0,0012.13,0008.35,0007.73
2023-02-05 22:40:00,,0818.4,4.94,0.00,26.1,24.7,00.0,34.9,27.9,13.4,0000.0,0012.70,0008.35,0007.72
2023-02-05 22:41:00,,0818.4,5.02,0.00,26.1,24.6,00.0,34.9,27.9,13.4,0000.0,0013.15,0008.28,0007.69
2023-02-05 22:42:00,,0818.4,5.02,0.00,26.0,24.6,00.0,34.9,27.9,13.2,0000.0,0013.55,0008.28,0007.65
2023-02-05 22:43:00,,0818.4,4.97,0.00,26.1,24.7,00.0,34.9,27.9,13.0,0000.0,0013.60,0008.28,0007.63
2023-02-05 22:44:00,,0818.4,4.99,0.00,26.1,24.7,00.0,34.9,27.9,13.3,0000.0,0013.80,0008.26,0007.61
2023-02-05 22:45:00,,0818.4,5.04,0.00,26.1,24.7,00.0,34.9,27.9,13.3,0000.0,0014.45,0008.23,0007.57
2023-02-05 22:46:00,,0818.4,4.95,0.00,26.1,24.7,00.0,34.9,27.9,13.4,0000.0,0014.33,0008.20,0007.53
2023-02-05 22:47:00,,0818.4,5.04,0.00,26.1,24.7,00.0,34.9,27.9,13.6,0000.0,0014.49,0008.14,0007.46
2023-02-05 22:48:00,,0818.4,5.00,0.00,26.1,24.6,00.0,34.9,27.9,13.8,0000.0,0014.78,0008.07,0007.40
2023-02-05 22:49:00,,0818.4,4.99,0.00,26.1,24.6,00.0,34.9,27.9,13.6,0000.0,0014.64,0008.04,0007.36
2023-02-05 22:50:00,,0818.4,5.04,0.00,26.0,24.6,00.0,34.9,27.9,13.8,0000.0,0014.73,0007.98,0007.31
2023-02-05 22:51:00,,0818.4,4.95,0.00,26.0,24.6,00.0,34.9,27.9,13.6,0000.0,0014.36,0007.95,0007.29
2023-02-05 22:52:00,,0818.3,5.04,0.00,26.0,24.7,00.0,34.9,27.9,13.6,0000.0,0014.20,0008.02,0007.28
2023-02-05 22:53:00,,0818.2,5.02,0.00,26.1,24.7,00.0,34.9,27.9,13.6,0000.0,0014.72,0007.99,0007.28
2023-02-05 22:54:00,,0818.3,4.97,0.00,26.1,24.8,00.0,34.9,27.9,13.5,0000.0,0014.75,0007.98,0007.28
2023-02-05 22:55:00,,0818.3,5.03,0.00,26.1,24.7,00.0,34.9,27.9,13.4,0000.0,0014.70,0007.96,0007.26
2023-02-05 22:56:00,,0818.3,4.96,0.00,26.1,24.7,00.0,34.9,27.9,13.4,0000.0,0014.32,0007.94,0007.25
2023-02-05 22:57:00,,0818.2,5.00,0.00,26.1,24.7,00.0,34.9,27.9,13.6,0000.0,0014.56,0007.92,0007.24
2023-02-05 22:58:00,,0818.2,5.03,0.00,26.1,24.8,00.0,34.9,27.9,13.6,0000.0,0014.94,0007.95,0007.25
2023-02-05 22:59:00,,0818.2,4.95,0.00,26.1,24.8,00.0,34.9,27.9,13.5,0000.0,0014.63,0007.96,0007.26
